Location: St. Louis
(38.6270°N, 90.1994°W)
Time: 20:16:39
(UTC-06:00)

ISS - Pass Details

Date: 04 August 2017
Orbit: 402 x 407 km, 51.6° (Epoch: 10 December)

Event Time Altitude Azimuth Distance (km) Brightness Sun altitude
Rises 21:32:48 0° 318° (NW) 2,319 1.7 -15.2°
Reaches altitude 10° 21:35:58 10° 352° (N) 1,457 -0.4 -15.7°
Maximum altitude 21:37:18 12° 16° (NNE) 1,344 -0.9 -15.9°
Drops below altitude 10° 21:38:38 10° 40° (NE) 1,456 -1.0 -16.1°
Enters shadow 21:39:37 - 54° (NE) 1,658 -0.9 -16.3°
